Temperature
19 18 18 17 17 17 17 17 17 17 17 17 17 17 17 17 17 17 17 17 16 16 16 16 16 16 16 15 15 15 15 16 16 16 16 16 16 16 16 16 16 16 16
19 18 18 17 17 17 17 17 17 17 17 17 17 17 17 17 17 17 17 17 16 16 16 16 16 16 15 15 15 15 16 16 16 17 17 17 17 16 16 16 16 16 16
20 19 18 18 17 17 17 17 17 17 17 17 17 17 17 17 17 17 17 16 16 16 16 16 16 15 15 15 15 15 15 16 16 16 17 18 18 17 16 16 16 16 16
20 19 18 18 17 17 17 17 17 17 17 17 17 17 17 17 17 17 17 17 16 16 16 16 15 15 15 15 15 15 15 15 16 16 16 16 17 18 17 16 16 15 15
20 19 18 18 17 17 17 17 17 17 17 17 17 17 17 17 17 17 17 17 16 16 16 16 15 15 15 15 15 15 15 15 16 16 16 16 16 17 17 18 17 16 16
20 19 18 18 17 17 17 17 17 17 17 17 17 17 17 17 17 17 17 17 16 16 16 15 15 15 15 15 15 15 15 15 15 15 16 16 17 17 17 17 17 17 16
20 19 18 18 17 17 17 17 16 17 17 17 17 17 17 17 17 17 17 17 16 16 16 15 15 15 15 15 15 15 15 14 14 15 15 16 16 16 17 17 17 17 17
20 19 18 18 17 17 17 17 16 17 17 17 17 17 17 17 17 17 17 17 16 16 16 16 15 15 15 15 15 14 14 14 14 14 15 15 15 16 16 16 17 17 17
20 20 19 18 18 17 17 17 17 17 17 17 17 17 17 17 17 17 17 16 16 16 16 16 15 15 15 15 15 14 14 14 14 14 14 15 15 15 15 15 16 16 17
21 20 19 19 18 18 17 17 17 17 17 17 17 17 17 17 17 17 17 16 16 16 16 16 16 15 15 15 15 14 14 14 14 14 14 14 15 15 15 15 15 15 16
22 20 19 19 18 18 17 17 17 17 17 17 17 17 17 17 17 17 17 17 17 16 16 16 16 16 15 15 15 15 14 14 14 14 14 14 14 14 15 15 15 15 15
22 21 20 19 18 18 17 17 17 17 17 17 17 17 17 17 17 17 17 17 17 17 16 16 16 16 15 15 15 15 15 15 14 14 14 14 14 14 14 14 14 15 15
21 21 20 19 19 18 18 17 17 17 17 17 17 17 17 17 17 17 17 17 17 17 16 16 16 16 16 15 15 15 15 15 15 14 14 14 14 14 14 14 14 14 14
21 21 20 19 19 18 18 18 17 17 17 17 17 17 17 17 17 17 17 17 17 17 16 16 16 16 16 15 15 15 15 15 15 14 14 14 14 14 14 14 14 14 14
20 20 19 19 18 18 18 18 17 17 17 17 17 17 17 17 17 17 17 17 17 16 16 16 16 16 16 16 15 15 15 15 15 14 14 14 14 14 14 14 14 13 13
20 19 19 18 18 18 18 18 17 17 17 17 17 17 17 17 17 17 17 17 17 17 16 16 16 16 16 16 16 15 15 15 14 14 14 14 14 14 14 14 14 13 13
19 18 18 18 17 18 18 17 17 17 17 17 17 17 17 17 17 17 16 16 16 16 16 16 16 16 16 16 15 15 15 14 14 14 14 14 14 14 13 14 14 13 13
18 17 17 17 17 17 17 17 17 17 17 17 17 17 16 16 16 16 16 16 16 16 16 16 15 15 15 15 15 15 15 14 14 14 13 13 13 13 13 13 13 13 13
16 16 16 17 17 17 17 17 17 17 16 16 16 16 16 16 16 16 16 16 16 16 15 15 15 15 15 15 15 15 14 14 14 13 13 13 13 13 13 12 12 12 12
15 15 15 16 16 16 16 16 16 16 16 16 15 16 16 16 16 16 16 15 15 15 15 15 15 15 15 14 14 14 13 13 13 13 12 12 12 12 12 12 12 12 12
14 14 15 15 15 15 15 15 15 15 15 15 15 15 15 15 15 15 15 15 15 15 14 14 14 14 14 14 14 13 13 13 12 12 12 12 12 12 12 11 11 11 11
13 13 14 14 14 14 15 15 14 14 14 14 14 14 14 14 14 14 14 14 14 14 14 13 13 13 13 13 13 12 12 12 12 12 11 11 11 11 11 11 11 11 11
12 13 13 13 13 13 14 14 13 13 14 14 14 13 13 13 13 13 13 13 13 13 13 13 13 12 12 12 11 11 11 11 11 11 11 11 11 10 10 10 10 10 10
12 12 12 12 12 12 13 13 12 13 13 13 13 13 13 13 13 12 12 12 12 12 12 12 12 11 11 11 11 11 10 10 10 10 10 10 10 10 9 9 9 9 9
11 12 12 12 12 12 12 12 12 12 12 12 12 12 12 12 12 12 11 11 11 11 11 11 11 10 10 10 10 10 10 10 9 9 9 9 9 9 9 9 9 9 9
11 11 11 11 11 11 11 11 11 11 11 11 11 11 11 11 11 11 11 11 10 10 10 10 10 10 10 9 9 9 9 9 9 9 9 9 9 9 9 8 8 8 8
Wind_Speed
10 11 11 11 12 12 13 14 15 15 13 11 10 10 9 7 7 7 9 9 9 8 6 5 5 4 3 3 4 4 5 4 3 3 4 3 3 3 3 2 2 4 3
9 10 11 12 12 13 13 14 15 15 14 12 10 8 8 7 6 7 8 10 9 9 8 6 5 5 4 4 4 4 3 4 4 3 4 4 5 3 3 3 3 2 3
10 11 12 13 13 14 14 14 15 15 14 13 10 8 7 7 7 8 7 8 9 9 7 7 5 5 5 5 5 5 5 4 4 4 3 3 3 5 5 3 3 2 2
10 11 12 13 13 13 14 14 15 15 15 14 13 14 11 10 9 8 7 8 9 9 8 8 6 5 4 4 6 5 4 4 4 4 3 3 3 2 4 5 5 3 3
10 11 12 12 12 13 13 13 14 14 15 15 15 14 12 9 8 9 9 9 8 9 9 8 7 6 5 4 3 4 4 4 4 4 4 4 3 4 3 3 4 5 4
9 10 11 11 11 12 12 13 13 14 15 15 15 14 13 12 11 11 11 9 8 8 9 9 7 7 5 5 5 4 5 3 3 3 4 4 4 4 4 3 5 4 4
9 10 11 11 11 12 13 13 14 14 14 15 14 14 14 13 13 12 12 10 9 8 9 9 8 7 6 6 5 5 4 4 4 5 4 4 4 4 4 4 4 3 4
10 11 11 11 11 13 13 13 14 14 14 14 14 12 13 11 11 12 11 10 8 8 10 9 9 8 7 7 6 6 6 4 5 5 4 4 4 4 4 5 4 5 5
11 11 12 12 12 12 13 14 14 13 13 13 12 12 12 11 11 11 10 10 8 8 10 10 9 9 8 7 7 6 6 5 6 6 6 6 4 4 4 4 5 6 5
11 12 12 12 12 12 12 12 13 13 13 13 11 10 11 11 10 11 11 10 9 9 10 10 10 9 9 8 8 7 7 7 6 5 5 6 6 5 5 5 5 6 6
13 12 11 12 12 12 12 12 13 13 12 12 12 11 10 10 11 10 11 10 10 10 11 11 10 10 10 9 9 8 7 8 8 7 8 8 7 6 5 5 6 6 6
13 13 13 13 13 13 13 13 13 14 13 13 12 11 10 10 11 11 12 11 11 11 11 11 11 11 10 10 11 10 10 10 9 9 9 9 7 8 7 6 7 6 6
13 13 13 13 13 13 13 13 14 14 14 13 12 12 11 11 11 11 12 12 11 11 11 11 11 11 11 11 11 11 10 10 10 10 10 10 9 9 8 8 8 7 7
13 13 13 13 13 13 13 13 13 13 13 14 13 13 12 12 12 11 11 11 11 11 10 10 10 10 10 10 10 10 10 10 10 10 10 10 10 10 10 9 9 8 8
12 12 12 12 12 12 12 12 12 12 13 14 13 13 12 12 11 11 11 11 10 11 10 10 10 10 9 9 10 10 10 10 10 10 10 10 9 8 8 8 8 9 9
10 11 11 11 11 10 10 10 11 11 12 12 12 12 11 11 11 11 11 10 11 10 10 10 10 10 9 7 8 9 9 10 10 10 10 10 10 10 10 10 9 9 10
9 9 9 9 9 9 8 9 9 10 11 11 11 11 11 11 11 11 10 10 10 10 9 9 9 9 7 6 9 10 9 9 9 9 9 9 9 10 10 11 13 12 12
7 7 7 7 7 7 7 8 8 9 9 9 9 9 9 9 9 9 9 9 8 8 8 8 8 7 6 7 8 9 10 9 9 9 9 9 8 7 7 8 10 11 11
6 5 6 6 7 7 7 8 8 8 7 7 7 6 7 7 8 8 8 7 6 6 6 6 6 5 4 5 6 7 8 8 9 8 8 8 7 4 4 7 9 10 10
7 7 7 8 8 7 8 9 8 8 6 6 5 5 4 4 5 5 5 5 5 5 5 4 4 4 3 3 5 7 6 6 6 6 6 5 5 3 4 8 9 10 10
10 10 10 9 9 9 10 11 10 8 7 7 7 6 6 5 4 4 3 4 5 4 4 3 3 2 2 4 4 4 4 4 4 4 4 3 4 4 5 7 8 8 8
12 12 11 11 10 10 11 12 11 9 10 10 10 9 7 6 6 5 5 4 4 5 4 4 3 2 3 3 3 3 2 3 3 3 3 1 3 4 5 5 5 6 7
12 12 13 13 12 11 11 12 11 10 11 11 11 10 10 9 8 7 6 5 4 4 3 3 3 3 3 3 4 3 2 2 3 2 1 0 2 4 5 6 6 6 6
12 12 14 14 13 13 13 12 11 11 12 12 11 10 10 10 10 8 7 6 6 5 4 4 3 3 3 4 3 1 1 1 1 1 1 4 5 5 4 4 5 5 5
12 12 13 14 14 13 13 12 11 10 11 11 10 10 10 10 10 10 9 9 9 7 6 5 5 4 4 5 5 4 3 3 2 3 2 2 2 3 3 3 3 4 4
13 13 14 14 14 13 13 11 10 10 10 10 9 8 8 7 7 8 9 14 11 12 13 12 9 8 9 6 6 5 5 4 3 4 3 3 3 4 4 4 4 4 4
Wind_Direction
182 178 180 181 180 183 184 183 182 182 176 175 177 175 175 174 175 174 170 175 174 175 192 184 174 202 185 192 186 189 174 187 180 181 166 153 146 132 144 148 157 150 157
177 178 180 181 185 185 185 184 186 183 182 178 176 174 166 170 171 172 169 178 178 181 189 189 189 188 177 188 190 208 214 183 202 223 198 181 164 172 150 154 156 143 149
185 183 187 188 186 188 188 187 186 183 182 174 164 159 157 168 170 173 175 181 184 186 188 188 197 186 202 185 196 201 217 203 196 237 247 225 189 159 160 158 148 149 155
187 187 189 189 188 190 190 188 185 182 181 175 174 175 181 182 181 177 174 176 186 188 187 189 191 195 198 175 199 193 206 220 205 191 249 309 2 245 168 175 168 167 181
186 187 188 188 187 186 185 184 183 181 179 180 181 184 188 185 173 173 169 179 184 191 190 188 190 193 199 187 199 176 220 219 231 211 200 207 214 254 254 184 177 185 183
182 181 181 182 185 183 180 180 179 180 180 183 185 189 186 179 172 176 176 184 183 189 189 190 191 196 196 185 193 196 201 231 237 247 227 222 223 225 232 221 212 203 186
176 175 177 178 179 179 178 178 180 180 180 183 187 190 186 182 181 183 184 188 186 188 186 191 193 197 194 193 195 199 213 208 210 230 234 240 250 255 252 253 236 226 202
175 176 177 178 179 180 177 177 179 178 179 182 185 187 187 188 189 191 188 192 194 190 181 188 193 197 196 197 196 208 204 207 216 226 240 245 239 242 245 254 255 240 226
175 174 175 178 178 179 177 177 176 175 177 179 181 185 188 194 191 188 194 195 195 188 183 189 194 198 199 201 202 216 211 209 220 218 213 235 229 235 242 250 260 267 263
174 173 175 176 175 175 173 175 175 175 178 178 180 182 188 193 192 194 198 198 194 192 186 192 197 200 201 202 210 216 212 218 223 234 235 237 235 224 233 240 247 257 270
173 171 171 171 171 171 171 174 174 174 179 182 183 185 187 190 193 197 201 199 196 194 196 198 201 202 203 205 210 223 214 220 222 221 221 227 243 237 232 232 238 242 248
170 168 167 166 170 173 175 176 178 178 181 182 182 185 186 190 196 200 201 197 197 199 200 203 204 206 208 208 212 219 219 221 223 223 224 225 222 225 243 241 240 242 249
168 167 167 169 172 175 178 180 183 183 181 180 183 187 189 192 198 201 199 197 198 201 203 205 210 213 214 214 216 220 223 225 228 227 226 227 228 228 232 235 242 240 235
168 169 170 173 174 175 178 182 186 185 182 182 185 189 193 195 196 197 196 197 199 201 204 207 212 217 219 221 222 221 224 227 230 231 233 234 232 231 233 233 240 246 248
165 168 169 168 171 174 178 182 184 186 185 185 190 193 194 195 198 199 200 199 201 206 208 212 215 218 220 223 222 223 224 226 229 231 233 236 237 243 242 247 239 236 241
165 164 164 162 167 172 177 179 182 184 184 188 193 193 193 194 198 200 201 202 204 210 211 215 217 219 225 204 207 227 233 230 232 234 234 233 226 229 230 251 267 269 252
158 159 162 162 164 170 175 179 181 180 183 189 193 192 193 194 198 201 201 204 205 207 213 217 220 224 227 191 197 214 236 239 238 238 239 242 236 222 231 225 228 243 252
145 145 149 150 154 158 164 168 167 171 178 184 188 190 192 192 193 197 201 203 204 205 209 214 217 222 221 183 197 206 225 240 239 238 238 240 249 241 240 244 240 241 239
122 124 130 132 130 136 145 147 149 151 156 163 169 177 186 189 192 196 200 202 202 203 205 209 211 214 203 169 192 207 220 229 236 238 238 238 239 229 223 246 254 256 255
103 106 109 111 111 114 121 124 124 127 133 137 141 145 152 159 174 182 186 182 183 188 192 194 200 201 202 156 181 206 223 229 233 231 231 225 233 232 219 244 252 257 261
97 96 96 94 95 103 108 107 105 105 108 109 107 105 108 114 117 127 144 154 159 157 157 152 146 139 129 122 139 191 222 235 236 237 235 216 182 219 230 242 252 262 272
96 96 93 89 88 96 101 99 95 97 99 98 94 89 84 86 95 102 104 114 126 131 131 129 118 101 96 87 111 150 213 276 250 255 265 189 157 209 230 238 256 268 265
95 95 94 88 80 80 89 92 91 95 96 93 90 86 81 77 77 84 92 97 101 104 110 113 111 99 87 98 110 133 178 235 262 289 46 75 202 224 228 223 236 249 256
93 94 93 90 82 77 77 82 88 93 93 90 88 86 82 75 67 60 62 65 65 71 76 81 83 82 76 53 41 42 89 165 232 289 176 193 214 235 255 237 230 250 272
92 89 90 89 87 83 80 80 82 87 89 87 85 84 81 78 73 66 54 58 54 50 51 55 57 53 61 46 26 16 21 6 12 322 282 275 272 272 278 283 289 287 281
95 92 89 88 88 85 81 78 78 81 87 88 84 83 83 83 85 86 79 60 66 69 63 53 54 73 69 64 51 40 28 9 331 300 294 304 307 311 317 314 313 310 311
Height
1494 1496 1498 1501 1504 1507 1510 1514 1518 1522 1527 1531 1536 1540 1544 1548 1552 1555 1557 1559 1562 1563 1565 1567 1567 1568 1570 1571 1571 1572 1573 1574 1575 1577 1578 1578 1579 1579 1580 1581 1582 1582 1583
1493 1494 1497 1499 1502 1505 1508 1512 1516 1520 1524 1529 1534 1539 1543 1547 1550 1553 1556 1558 1560 1562 1564 1565 1566 1567 1568 1569 1570 1571 1573 1574 1575 1576 1577 1578 1579 1579 1580 1580 1581 1582 1582
1490 1493 1495 1498 1500 1503 1506 1510 1514 1518 1522 1527 1532 1537 1541 1545 1548 1551 1554 1556 1559 1560 1562 1563 1565 1565 1567 1568 1569 1570 1572 1573 1574 1575 1576 1577 1576 1578 1580 1580 1580 1581 1581
1489 1491 1493 1496 1498 1501 1504 1508 1511 1516 1520 1524 1529 1534 1538 1542 1546 1549 1552 1555 1557 1559 1561 1562 1563 1564 1566 1567 1568 1569 1571 1572 1573 1574 1574 1576 1576 1577 1578 1580 1580 1580 1580
1486 1489 1491 1494 1496 1499 1502 1505 1508 1513 1517 1522 1527 1532 1537 1541 1544 1547 1550 1553 1555 1557 1559 1560 1561 1562 1565 1566 1567 1567 1569 1571 1572 1573 1574 1575 1576 1577 1577 1578 1579 1580 1580
1484 1487 1489 1492 1495 1497 1500 1503 1507 1511 1515 1520 1525 1530 1534 1538 1542 1545 1548 1551 1554 1556 1557 1558 1559 1561 1563 1564 1565 1566 1568 1569 1570 1572 1573 1574 1575 1576 1576 1577 1578 1578 1579
1483 1485 1488 1490 1492 1495 1498 1501 1505 1509 1513 1518 1523 1528 1532 1536 1539 1543 1546 1549 1552 1554 1555 1557 1558 1560 1561 1562 1564 1565 1567 1567 1568 1570 1571 1573 1574 1574 1575 1576 1576 1577 1577
1481 1484 1486 1488 1491 1493 1496 1500 1503 1507 1511 1516 1521 1525 1530 1534 1538 1541 1544 1547 1550 1552 1553 1555 1556 1558 1559 1561 1562 1564 1565 1566 1567 1568 1569 1570 1572 1572 1573 1574 1575 1575 1575
1480 1483 1485 1488 1490 1492 1495 1498 1502 1506 1510 1514 1518 1523 1527 1531 1535 1538 1542 1545 1547 1550 1551 1553 1555 1556 1557 1559 1560 1562 1563 1564 1565 1567 1567 1568 1570 1570 1571 1572 1573 1574 1573
1478 1481 1484 1486 1489 1492 1494 1498 1501 1504 1508 1513 1517 1521 1525 1529 1533 1536 1539 1542 1545 1547 1549 1551 1553 1554 1556 1557 1558 1560 1561 1562 1563 1564 1565 1566 1567 1568 1569 1569 1570 1571 1572
1476 1480 1483 1485 1488 1491 1494 1497 1500 1503 1507 1511 1515 1519 1523 1527 1530 1533 1536 1539 1542 1544 1547 1549 1551 1552 1554 1555 1556 1558 1559 1559 1561 1561 1562 1563 1564 1565 1566 1567 1567 1568 1569
1475 1478 1481 1484 1487 1491 1494 1497 1500 1503 1506 1510 1514 1517 1521 1524 1527 1529 1532 1535 1538 1541 1544 1546 1548 1550 1551 1552 1554 1555 1556 1557 1558 1559 1559 1560 1561 1561 1563 1564 1564 1565 1565
1474 1477 1480 1483 1486 1489 1493 1496 1499 1502 1506 1509 1512 1515 1519 1521 1524 1526 1528 1532 1535 1538 1541 1543 1545 1547 1548 1550 1551 1552 1553 1554 1555 1556 1556 1557 1558 1558 1559 1559 1561 1561 1562
1472 1475 1479 1482 1485 1488 1491 1494 1498 1501 1504 1507 1510 1513 1516 1519 1522 1524 1526 1529 1532 1535 1537 1540 1542 1544 1545 1546 1547 1548 1549 1550 1551 1552 1553 1553 1554 1555 1555 1556 1556 1557 1558
1471 1474 1477 1480 1483 1486 1489 1492 1495 1499 1502 1505 1508 1511 1514 1517 1519 1522 1524 1526 1529 1531 1534 1536 1538 1539 1541 1542 1544 1544 1545 1546 1547 1547 1548 1549 1549 1550 1551 1552 1553 1553 1553
1470 1473 1476 1478 1481 1484 1487 1490 1493 1496 1499 1502 1505 1508 1511 1513 1516 1518 1521 1523 1525 1528 1530 1532 1534 1535 1537 1538 1539 1540 1541 1542 1542 1543 1543 1544 1544 1545 1545 1546 1547 1548 1549
1469 1472 1474 1477 1479 1482 1485 1488 1491 1494 1496 1499 1503 1505 1508 1510 1513 1515 1518 1520 1522 1524 1526 1528 1529 1530 1532 1533 1535 1535 1536 1537 1537 1538 1538 1539 1540 1540 1540 1540 1541 1542 1542
1469 1471 1473 1476 1478 1481 1483 1486 1489 1492 1494 1497 1500 1503 1505 1507 1509 1512 1514 1516 1518 1519 1521 1523 1525 1526 1527 1529 1530 1531 1531 1532 1532 1533 1533 1533 1534 1535 1535 1535 1536 1536 1536
1468 1471 1473 1475 1477 1479 1482 1484 1486 1489 1492 1495 1497 1500 1502 1504 1506 1508 1510 1512 1514 1516 1517 1519 1521 1522 1522 1523 1525 1526 1526 1526 1527 1527 1528 1528 1529 1529 1529 1530 1530 1530 1531
1468 1470 1472 1474 1476 1478 1481 1483 1485 1488 1490 1493 1495 1497 1499 1501 1503 1505 1507 1509 1511 1512 1514 1515 1517 1518 1518 1519 1520 1521 1521 1522 1522 1522 1523 1523 1523 1523 1524 1524 1524 1525 1525
1469 1471 1473 1474 1476 1478 1480 1482 1485 1487 1490 1492 1494 1496 1498 1499 1501 1503 1505 1506 1508 1509 1511 1512 1513 1514 1515 1515 1516 1517 1517 1518 1518 1519 1519 1518 1518 1518 1518 1519 1519 1519 1519
1471 1473 1474 1476 1478 1480 1482 1483 1486 1489 1491 1493 1494 1496 1497 1499 1500 1502 1503 1505 1506 1507 1508 1509 1511 1511 1512 1512 1513 1513 1514 1514 1514 1514 1515 1514 1514 1514 1513 1514 1513 1513 1513
1474 1476 1476 1478 1480 1483 1484 1486 1489 1491 1492 1494 1495 1497 1498 1499 1501 1502 1503 1504 1505 1506 1508 1509 1509 1510 1510 1510 1510 1510 1510 1510 1510 1510 1510 1510 1509 1509 1509 1509 1509 1508 1508
1477 1479 1480 1481 1483 1486 1487 1489 1492 1493 1495 1496 1497 1498 1500 1501 1502 1503 1504 1505 1506 1506 1507 1508 1508 1509 1509 1509 1509 1508 1508 1508 1507 1507 1507 1506 1506 1506 1506 1505 1505 1504 1504
1481 1482 1484 1485 1487 1489 1492 1494 1495 1497 1498 1499 1500 1501 1502 1503 1503 1504 1504 1505 1505 1506 1507 1507 1507 1508 1508 1507 1507 1507 1506 1506 1505 1504 1505 1505 1504 1504 1503 1503 1502 1501 1500
1485 1487 1489 1490 1492 1494 1496 1497 1499 1500 1501 1502 1503 1505 1505 1506 1506 1507 1507 1507 1507 1507 1507 1507 1507 1507 1507 1506 1506 1506 1505 1504 1503 1503 1504 1503 1502 1501 1500 1499 1498 1497 1496